Weather Roundup
Issued by NWS Springfield, MO

Home | Current Version | Previous Version | Text Only | Print | Product List | Glossary On
Versions: 1 2 3 4 5 6 7 8 9 10 11 12 13 14 15 16 17 18 19 20 21 22 23 24 25 26 27 28 29 30 31 32 33 34 35 36 37 38 39 40 41 42 43 44 45 46 47 48 49 50
000
NZUS99 KSGF 301357
HRRSGF

HOURLY WEATHER
NATIONAL WEATHER SERVICE SPRINGFIELD MO
900 AM CDT SAT APR 30 2016

......SGF CWA......

CITY           SKY/WX    TMP DP  RH WIND       PRES   REMARKS
SPRINGFIELD    CLOUDY    64  60  87 S13       29.71R
JOPLIN         CLOUDY    65  61  87 SW12G21   29.70R
WEST PLAINS    CLOUDY    63  59  87 S12       29.76R
ROLLA          LGT RAIN  60  59  96 SE10      29.70F FOG
BRANSON        CLOUDY    64  61  88 S6        29.75R

......SURROUNDING SGF CWA......

CITY           SKY/WX    TMP DP  RH WIND       PRES   REMARKS
CHANUTE        PTSUNNY   60  55  83 SW9       29.70R
PARSONS        CLOUDY    60  57  89 SW9       29.72R
COFFEYVILLE    PTSUNNY   60  56  86 SW14      29.73R
EMPORIA        CLOUDY    53  50  89 W12G17    29.68R
HARRISON AR    CLOUDY    64  60  87 S7        29.75R

......KANSAS AND MISSOURI......

CITY           SKY/WX    TMP DP  RH WIND       PRES   REMARKS
KANSAS CTY INT CLOUDY    58  56  93 E8        29.64F
DOWNTOWN KC    CLOUDY    61  59  93 E3        29.64F
SEDALIA        CLOUDY    62  60  93 SE12      29.67F
ST JOSEPH      CLOUDY    54  52  93 E13G21    29.65F
ST LOUIS       CLOUDY    61  58  90 SE5       29.79R
WICHITA        PTSUNNY   50  45  83 W15       29.74S
TOPEKA         MOSUNNY   59  56  89 SW8       29.63F
OLATHE         CLOUDY    60  59  96 S8        29.64F

......TENNESSEE......

CITY           SKY/WX    TMP DP  RH WIND       PRES   REMARKS
MEMPHIS        NOT AVBL
NASHVILLE      CLOUDY    65  61  87 CALM      29.95S

......ARKANSAS.......

CITY           SKY/WX    TMP DP  RH WIND       PRES   REMARKS
FAYETTEVILLE   CLOUDY    64  63  96 S10       29.74R
FT SMITH       CLOUDY    67  62  84 NE3       29.74R
LITTLE ROCK    CLOUDY    66  62  87 SE3       29.76R

......OKLAHOMA.......

CITY           SKY/WX    TMP DP  RH WIND       PRES   REMARKS
TULSA          PTSUNNY   59  54  83 W14       29.74R
PONCA CITY     CLOUDY    50  46  86 W9G21     29.77R
MCALESTER      CLOUDY    60  57  89 NW8       29.78R FOG
OKLAHOMA CITY  MOSUNNY   53  47  79 NW13      29.78S

......IOWA............

CITY           SKY/WX    TMP DP  RH WIND       PRES   REMARKS
DES MOINES     NOT AVBL
QUAD CITIES    LGT RAIN  48  44  86 E20G26    29.89F FOG

......ILLINOIS........

CITY           SKY/WX    TMP DP  RH WIND       PRES   REMARKS
QUINCY         NOT AVBL
CHICAGO        CLOUDY    48  41  76 E14       30.04S




USA.gov is the U.S. government's official web portal to all federal, state and local government web resources and services.